Location: Quedlinburg
(51.7921°N, 11.1414°E)
Time: 23:56:47
(UTC+01:00)

NOAA 15 - Visible Passes

Search period start: 12 March 2026 00:00
Search period end: 22 March 2026 00:00
Orbit: 795 x 808 km, 98.5° (Epoch: 12 March)

Date Brightness Start Highest point End Pass type
(mag) Time Alt. Az. Time Alt. Az. Time Alt. Az.
12 Mar 7.5 19:58:57 10° SW 20:02:35 19° W 20:06:15 10° NW visible
13 Mar 6.8 19:31:29 10° SSW 19:36:03 29° W 19:40:38 10° NNW visible
14 Mar 5.9 19:04:33 10° S 19:09:36 46° W 19:14:43 10° NNW visible
15 Mar 7.7 20:21:45 10° WSW 20:23:57 12° W 20:26:11 10° WNW visible
16 Mar 7.4 19:53:28 10° SW 19:57:20 20° W 20:01:13 10° NW visible
17 Mar 6.6 19:26:07 10° SSW 19:30:48 32° W 19:35:32 10° NNW visible
18 Mar 5.7 18:59:16 10° S 19:04:23 50° W 19:09:34 10° NNW visible
19 Mar 7.6 20:16:02 10° WSW 20:18:41 14° W 20:21:21 10° NW visible
20 Mar 7.2 19:48:00 10° SW 19:52:04 22° W 19:56:10 10° NW visible
21 Mar 6.5 19:20:46 10° SSW 19:25:34 34° W 19:30:24 10° NNW visible
